#timestamp,LO_Frequency,Hit,StdDev 
1528632015.0,286047000.5,N
1528632015.9,286047000.5,N
1528632035.8,286046998.5,N
1528632055.6,286046999.6,N
1528632075.4,286046998.2,N
1528632095.3,286046998.2,N
1528632115.1,286046998.1,N
1528632135.9,286047000.1,N
1528632155.7,286047001.7,N
1528632175.5,286047002.1,N
1528632195.4,286047001.8,N
1528632215.2,286047001.3,N
1528632235.0,286047001.7,N
1528632235.9,286047001.7,N
1528632255.8,286047001.4,N
1528632275.6,286047001.6,N
1528632295.5,286047002.3,N
1528632315.3,286046999.9,N
1528632335.1,286047000.0,N
1528632355.9,286047001.7,N
1528632375.7,286047004.0,Y
1528632395.5,286047001.5,P
1528632415.4,286047003.5,P
1528632435.2,286047003.9,N
1528632455.1,286047004.2,N
1528632456.0,286047004.2,N
1528632475.8,286046999.8,N
1528632495.6,286047002.3,N
1528632515.5,286047002.8,N
1528632535.3,286047001.3,N
1528632555.1,286047003.7,N
1528632575.9,286047003.6,N
1528632595.7,286047004.2,N
1528632615.6,286047004.3,N
1528632635.4,286047003.5,N
1528632655.2,286047004.4,Y
1528632675.1,286047000.9,P
1528632676.0,286047000.9,N
1528632695.8,286046999.9,N
1528632715.7,286047000.2,N
1528632735.5,286047001.0,N
1528632755.3,286046999.7,N
1528632775.2,286047000.5,N
1528632795.0,286047000.3,N
1528632795.9,286047000.3,N
1528632815.8,286046999.8,N
1528632835.6,286047000.5,N
1528632855.4,286047001.0,N
1528632875.3,286047000.4,N
1528632895.1,286047000.6,N
1528632915.8,286046998.2,N
1528632935.7,286046998.2,N
1528632955.5,286046999.0,N
1528632975.4,286046999.4,N
1528632995.2,286046998.9,N
1528633015.0,286046998.1,N
1528633015.9,286046998.1,N
1528633035.7,286047001.0,N
1528633055.5,286046999.1,N
1528633075.3,286046998.4,N
1528633095.2,286046998.7,N
1528633115.0,286046998.3,N
1528633115.9,286046998.3,N
1528633135.8,286046999.6,N
1528633155.6,286046999.1,N
1528633175.4,286046997.2,N
1528633195.3,286046996.7,Y
1528633215.1,286046998.3,P
1528633235.8,286046998.5,N
1528633255.7,286046996.6,P
1528633275.5,286046996.5,Y
1528633295.4,286047000.8,P
1528633315.2,286047000.7,N
1528633335.0,286046999.8,N
1528633335.9,286046999.8,N
1528633355.8,286047002.1,N
1528633375.6,286047001.8,N
1528633395.5,286046999.8,N
1528633415.3,286047000.5,N
1528633435.1,286047000.2,N
1528633455.9,286047001.9,N
1528633475.7,286047004.1,Y
1528633495.6,286047004.0,P
1528633515.4,286047003.4,N
1528633535.2,286047003.2,N
1528633555.1,286047001.9,N
1528633556.0,286047001.9,N
1528633575.8,286047002.7,N
1528633595.7,286046999.7,N
1528633615.6,286047000.0,N
1528633635.4,286047002.2,N
1528633655.2,286047004.3,Y
1528633675.1,286047002.5,P
1528633676.0,286047002.5,P
1528633695.8,286047001.6,P
1528633715.7,286047002.4,Y
1528633735.5,286046996.7,P
1528633755.3,286046996.9,N
1528633775.2,286046999.0,N
1528633795.0,286046999.0,N
1528633795.9,286046999.0,N
1528633815.8,286047000.9,N
1528633835.6,286047000.2,N
1528633855.4,286047000.1,N
1528633875.3,286047000.7,N
1528633895.1,286046996.6,N
1528633896.0,286046996.6,N
1528633915.8,286046996.9,N
1528633935.7,286046999.1,N
1528633955.5,286046996.9,N
1528633975.3,286046997.3,N
1528633995.2,286046997.9,N
1528634015.0,286046997.2,N
1528634015.9,286046997.2,N
1528634035.8,286046994.9,Y
1528634055.6,286046999.0,P
1528634075.4,286046998.7,P
1528634095.3,286046998.1,P
1528634115.1,286047002.5,Y
1528634135.9,286047004.1,P
1528634155.7,286047000.1,N
1528634175.5,286046999.8,N
1528634195.4,286046999.8,N
1528634215.2,286047000.0,N
1528634235.0,286047000.4,N
1528634236.0,286047000.4,N
1528634255.8,286046998.9,N
1528634275.6,286046998.3,N
1528634295.5,286046999.0,N
1528634315.3,286046999.1,N
1528634335.1,286046998.6,N
1528634355.9,286047000.6,N
1528634375.7,286047000.4,N
1528634395.5,286047000.5,N
1528634415.4,286047001.2,N
1528634435.2,286047000.1,N
1528634455.1,286047001.7,N
1528634456.0,286047001.7,N
1528634475.8,286047002.4,N
1528634495.6,286047002.3,N
1528634515.5,286047002.8,N
1528634535.3,286047003.9,N
1528634555.2,286047001.3,N
1528634575.9,286047001.4,N
1528634595.7,286047004.0,N
1528634615.6,286047002.0,N
1528634635.4,286047002.3,N
1528634655.5,286047002.1,N
1528634675.4,286047003.5,N
1528634695.2,286047003.3,N
1528634715.0,286047004.4,N
1528634715.9,286047004.4,N
1528634735.8,286047001.8,N
1528634755.6,286047002.4,N
1528634775.5,286047001.9,N
1528634795.3,286047002.2,N
1528634815.1,286047002.4,N
1528634835.9,286047000.2,N
1528634855.7,286047000.1,N
1528634875.5,286047002.2,N
1528634895.4,286047000.9,N
1528634915.2,286047000.0,N
1528634935.1,286047000.5,N
1528634936.0,286047000.5,N
1528634955.8,286047002.0,N
1528634975.6,286047004.3,Y
1528634995.5,286047000.6,P
1528635015.3,286046998.2,N
1528635035.1,286047000.7,N
1528635055.9,286046999.8,N
1528635075.7,286047002.8,N
1528635095.6,286046999.8,N
1528635115.4,286047000.7,N
1528635135.2,286046998.8,N
1528635155.1,286046998.9,N
1528635156.0,286046998.9,N
1528635175.8,286046998.2,N
1528635195.6,286046999.9,N
1528635215.5,286047000.3,N
1528635235.3,286047000.4,N
1528635255.2,286047002.7,N
1528635275.9,286047001.8,N
1528635295.7,286047001.4,N
1528635315.6,286047003.2,N
1528635335.4,286047001.9,N
1528635355.3,286047002.3,N
1528635375.1,286047002.6,N
1528635376.0,286047002.6,N
1528635395.8,286047002.2,N
1528635415.7,286047002.4,N
1528635435.5,286047001.0,N
1528635455.4,286047000.1,N
1528635475.2,286047000.6,N
1528635495.0,286047000.2,N
1528635495.9,286047000.2,N
1528635545.8,286047000.1,E
1528635555.7,286047000.4,N
1528635575.5,286046999.9,P
1528635595.4,286047002.1,P
